EW6294 Weather Reports


time (UTC)temp
F
wind
direction
speed
knots
gust
knots
rain 1hr
in
rain 24hr
in
rain mn
in
humidity
%
barometer
mb
20260504050016 53 180 0.9 3.5 0.00 0.00 0.00 46 1005.8
20260504043015 54 0.0 2.6 0.00 0.00 0.00 44 1005.8
20260504040015 56 23 0.9 2.6 0.00 0.00 0.00 41 1006.5
20260504033015 58 23 0.9 2.6 0.00 0.00 0.00 40 1006.2
20260504030015 61 23 0.9 3.5 0.00 0.00 0.00 37 1005.9
20260504023017 64 0.0 0.0 0.00 0.00 0.00 34 1005.2
20260504020017 67 0.0 2.6 0.00 0.00 0.00 31 1004.8
20260504013017 68 45 0.9 4.3 0.00 0.00 0.00 27 1004.8
20260504010017 67 45 1.7 7.0 0.00 0.00 0.00 28 1005.2
20260504003017 68 23 1.7 4.3 0.00 0.00 0.00 28 1005.3
20260504000016 68 23 1.7 7.0 0.00 0.00 0.00 28 1005.5
20260503233017 69 45 1.7 5.2 0.00 0.00 0.00 25 1005.7
20260503230117 70 338 2.6 8.7 0.00 0.00 0.00 27 1006.1
20260503223016 71 23 2.6 9.6 0.00 0.00 0.00 26 1006.6
20260503220016 69 338 3.5 13.0 0.00 0.00 0.00 27 1006.8
20260503213016 69 293 4.3 11.3 0.00 0.00 0.00 27 1007.2
20260503210036 69 315 4.3 10.4 0.00 0.00 0.00 27 1007.7
20260503203016 68 338 2.6 7.8 0.00 0.00 0.00 30 1008.1
20260503200016 66 338 4.3 12.2 0.00 0.00 0.00 32 1008.1
20260503193017 68 293 3.5 9.6 0.00 0.00 0.00 30 1008.7
20260503190016 66 338 3.5 9.6 0.00 0.00 0.00 32 1009.0
20260503183016 66 23 2.6 9.6 0.00 0.00 0.00 31 1009.9
20260503180116 65 23 3.5 10.4 0.00 0.00 0.00 32 1010.6
20260503173016 66 23 2.6 6.1 0.00 0.00 0.00 32 1011.2